Location: Newark
(44.4156°N, 12.1972°E)
Time: 02:45:18
(UTC+00:00)

STARLINK-1077 - Pass Details

Date: 04 February 2020
Orbit: 348 x 351 km, 53.0° (Epoch: 28 February)

Event Time Altitude Azimuth Distance (km) Brightness Sun altitude
Rises 17:02:01 0° 293° (WNW) 2,173 7.6 -7.3°
Reaches altitude 10° 17:04:20 10° 276° (W) 1,324 6.9 -7.7°
Maximum altitude 17:06:36 20° 226° (SW) 885 5.6 -8.1°
Drops below altitude 10° 17:08:52 10° 175° (S) 1,316 5.7 -8.5°
Sets 17:11:10 0° 158° (SSE) 2,153 6.6 -8.9°
